Location: Guadanolo
(41.9167°N, 12.9333°E)
Time: 02:56:49
(UTC+00:00)

Cosmos 1624 Rocket - Pass Details

Date: 16 September 2019
Orbit: 757 x 784 km, 74.0° (Epoch: 22 October)

Event Time Altitude Azimuth Distance (km) Brightness Sun altitude
Rises 19:29:48 0° 199° (SSW) 3,207 7.1 -24.5°
Reaches altitude 10° 19:32:09 10° 200° (SSW) 2,283 6.4 -24.9°
Maximum altitude 19:37:20 85° 289° (WNW) 766 3.9 -25.7°
Drops below altitude 10° 19:42:33 10° 19° (NNE) 2,294 6.6 -26.6°
Sets 19:44:56 0° 20° (NNE) 3,223 7.4 -26.9°
